Regional Weather Roundup
Issued by NWS Upton, NY

Current Version | Previous Version | Graphics & Text | Print | Product List | Glossary Off
Versions: 1 2 3 4 5 6 7 8 9 10 11 12 13 14 15 16 17 18 19 20 21 22 23 24 25 26 27 28 29 30 31 32 33 34 35 36 37 38 39 40 41 42 43 44 45 46 47 48 49 50

000
ASUS41 KOKX 040008
RWROKX

REGIONAL WEATHER ROUNDUP
NATIONAL WEATHER SERVICE NEW YORK NY
700 PM EST SAT DEC 03 2016

NOTE: "FAIR" INDICATES FEW OR NO CLOUDS BELOW 12,000 FEET WITH NO
SIGNIFICANT WEATHER AND/OR OBSTRUCTIONS TO VISIBILITY.

NYZ071-072-176-178-NJZ106-104-040100-
NEW YORK CITY METRO AREA

CITY           SKY/WX    TMP DP  RH WIND       PRES   REMARKS
Central Park   PTCLDY    44  27  51 NW6       30.13S
Wall St Helipt PTCLDY    46  30  53 VRB3      30.12S
Bronx Bot Gard NOT AVBL
LaGuardia APRT MOCLDY    46  31  55 NW13      30.11R
Kennedy INTL   PTCLDY    45  26  47 NW16      30.12R
Breezy Point     N/A     45 N/A N/A NW14G30     N/A
Newark/Liberty MOCLDY    45  27  49 NW12G21   30.12R
Teterboro      PTCLDY    44  27  51 NW10      30.11S
$$

NYZ177-179-078>081-040100-
LONG ISLAND NEW YORK

CITY           SKY/WX    TMP DP  RH WIND       PRES   REMARKS
Jones Beach      N/A     43 N/A N/A NW15G22     N/A
Matinecock PT    N/A     45 N/A N/A NW20G26     N/A
Farmingdale    CLEAR     43  27  53 NW12      30.10R
MacArthur/ISP  PTCLDY    42  27  55 NW13      30.08R
Shirley        CLEAR     41  26  55 NW10      30.09R
Westhampton    PTCLDY    42  25  50 NW15      30.09R
Southampton    NOT AVBL
Bridgehampton  NOT AVBL
East Hampton     N/A     40  25  54 N15G23    30.07R WCI  32
Montauk          N/A     42  27  55 NW16G29   30.07R
$$

NYZ052-065-067-040100-
HUDSON VALLEY

CITY           SKY/WX    TMP DP  RH WIND       PRES   REMARKS
White Plains   CLEAR     41  28  60 NW18      30.07S
Newburgh       MOCLDY    39  28  65 NW12      30.11R WCI  32
Montgomery     MOCLDY    40  30  67 NW8       30.10S WCI  34
Poughkeepsie   PTCLDY    39  26  59 NW7       30.10R WCI  34
Albany         FLURRIES  36  27  69 NW16G23   30.12S WCI  26
$$

NJZ001-105-106-008-010-013-015-019>022-104-040100-
NEW JERSEY

CITY           SKY/WX    TMP DP  RH WIND       PRES   REMARKS
Newark/Liberty MOCLDY    45  27  49 NW12G21   30.12R
Teterboro      PTCLDY    44  27  51 NW10      30.11S
Caldwell       CLOUDY    44  27  51 NW7       30.12S
Somerville     CLOUDY    45  25  45 NW14G24   30.11F
Linden         CLOUDY    45  26  48 NW12G17   30.13R
Sussex         CLOUDY    41  29  62 VRB7      30.13R
Andover          N/A     41  26  55 VRB6      30.12S
Trenton        CLOUDY    45  26  47 NW7       30.13S
Millville      CLOUDY    44  33  65 W6        30.17R
Atlantic City  CLEAR     42  29  59 NW8       30.15R
Wrightstown    NOT AVBL
Toms River     PTCLDY    44  27  51 NW10      30.13R
Belmar         MOCLDY   N/A N/A N/A NW14      30.13
$$

PAZ047>061-062-071-040100-
EASTERN PENNSYLVANIA

CITY           SKY/WX    TMP DP  RH WIND       PRES   REMARKS
Philadelphia   MOCLDY    47  31  53 NW13      30.16S
Allentown      CLOUDY    44  28  53 NW8       30.14F
Scranton       CLOUDY    41  27  57 NW12G22   30.14S
$$

CTZ002-004>006-009-010-012-RIZ004-006-007-MAZ004-011-015-040100-
SOUTHERN NEW ENGLAND
 IN CT

CITY           SKY/WX    TMP DP  RH WIND       PRES   REMARKS
Bradley INTL   MOCLDY    39  24  55 NW13      30.07R WCI  31
Hartford       MOCLDY    40  25  55 NW16G22   30.09R WCI  31
Danbury        MOCLDY    39  25  57 NW6       30.08R WCI  35
Wtrbury/Oxford CLOUDY    37  23  56 N7        30.08R WCI  32
Bridgeport     CLOUDY    45  27  49 N5        30.09R
Meriden        CLOUDY    42  25  50 NW8       30.09R
New Haven      MOCLDY    39  26  59 N5        30.09R
Chester        CLOUDY    39  23  52 NW12G23   30.07R WCI  32
Groton         PTCLDY    42  25  50 NW8G24    30.06R
Wilimantic     CLEAR     40  25  55 NW6       30.06R

 IN RI

CITY           SKY/WX    TMP DP  RH WIND       PRES   REMARKS
Providence     MOCLDY    42  23  46 NW12      30.03R
Block Island   PTCLDY    41  26  55 NW15G25   30.04R
Westerly       CLOUDY    42  21  43 W9G17     30.05R
 IN MA

CITY           SKY/WX    TMP DP  RH WIND       PRES   REMARKS
Boston         PTCLDY    39  24  55 NW15G26   30.03R WCI  31
Worcester      PTCLDY    34  21  59 NW14      30.01R WCI  25
Westfield      CLOUDY    37  27  67 NW15      30.07R WCI  28
Provincetown   CLOUDY    42  27  55 NW28G37   29.98R
Nantucket      CLOUDY    43  25  49 NW17G32   29.97R
$$

ANZ330-335-338-340-345-350-353-355-040100-
COASTAL MARINE OBSERVATIONS


STATION/POSITION TIME  SKY/WX   TEMP    WIND        PRES    VSBY  WAVE
                                AIR SEA DIR/SP/G                  HT/PER
                 (UTC)          (F)     (DEG/KT/KT) (MB)    (MI)  (FT/S)
NY HARB ENTRANCE 2350            48 55  310/ 25/ 35 1018.8          4/ 5
20 S FIRE ISLAND 2350            47 53  320/ 25/ 31 1018.3          6/ 6
GREAT SOUTH BAY  2315            44 44                N/A
23 SSW MONTAUK P 2350            45 56  320/ 23/ 31 1017.6          5/ 6
15 E BARNEGAT LI 2330               54                N/A           5/ 5
HUDSON CANYON    2250            50 58              1017.1          9/ 8
KINGS POINT      2330            44 48              1019.2
EXECUTION ROCKS  2345            45     290/ 17/ 23   N/A
CENTRAL LI SOUND 2315            44 51  330/ 17/ 19   N/A           2/ 3
EASTERN LI SOUND NOT AVBL
ROBBINS REEF     2330            45     310/ 15/ 19 1019.7
$$


>>>>>>>>>>>>>>>>>>>>>>>>>>>> KEY <<<<<<<<<<<<<<<<<<<<<<<<<<<
>                                                          <
>     SKY/WX - Sky Condition/Present Weather               <
>     TMP    - Temperature in Fahrenheit                   <
>     DP     - Dew Point in Fahrenheit                     <
>     RH     - Relative Humidity in Percent                <
>     WIND   - Direction (from) and Speed in MPH           <
>     PRES   - Mean Sea Level Pressure (inches of Hg)      <
>     WCI    - Wind Chill Index                            <
>     VSB    - VISIBILITY IN MILES                         <
>     HX     - HEAT INDEX                                  <
>     TC     - TEMPERATURE IN CELSIUS                      <
>     VRB    - VARIABLE WIND DIRECTION                     <
>                                                          <
>>>>>>>>>>>>>>>>>>>>>>>>>>>> KEY <<<<<<<<<<<<<<<<<<<<<<<<<<<



USA.gov is the U.S. government's official web portal to all federal, state and local government web resources and services.